Wind_Speed
60 56 54 57 56 58 62 70 69 68 65 60 53 56 58 57 52 53 52 50 49 47 46 43 42 41 39 36 33 30 30 31 32 33 33 34 32 33 34 35 36 38 39 38 36 38 38 42 46 50 55 59 64 66
58 51 50 53 58 61 69 70 66 63 59 55 53 59 58 58 56 52 50 49 48 48 47 45 44 43 40 34 32 31 31 32 32 33 34 36 36 37 37 36 39 41 44 42 46 47 46 48 53 58 62 65 68 71
55 52 53 57 62 68 71 65 61 57 55 50 55 63 59 57 53 53 50 50 47 48 47 46 44 42 41 37 35 34 34 34 34 36 37 37 39 40 41 42 44 47 49 50 50 52 55 58 60 63 66 69 72 75
56 51 55 61 66 70 68 63 58 54 51 49 62 61 57 53 49 51 49 49 47 47 47 46 45 44 43 41 39 39 38 37 36 37 38 40 42 43 44 47 48 52 55 53 51 58 61 64 67 68 71 74 78 82
51 52 55 60 67 69 66 58 55 51 47 54 66 60 55 51 46 46 47 47 47 47 48 49 47 45 45 44 43 42 42 41 39 37 35 35 37 42 44 45 49 57 58 58 59 64 65 68 71 74 78 81 84 86
55 52 54 64 69 66 66 58 54 50 44 55 65 61 55 50 46 43 41 42 42 45 48 48 50 49 49 49 49 49 48 48 46 45 44 44 46 46 45 49 66 64 64 66 67 70 71 73 75 78 82 84 87 87
52 52 55 62 68 66 63 59 55 50 44 51 62 63 56 53 49 47 45 44 43 43 44 48 50 49 52 56 56 55 54 52 50 49 50 53 54 54 53 58 68 67 69 72 74 75 78 81 83 85 87 87 89 91
55 53 60 63 67 64 62 58 55 52 47 44 55 64 60 57 55 53 50 46 45 44 44 45 46 50 53 56 57 58 59 59 58 58 59 60 59 61 61 68 70 71 75 77 79 82 83 84 84 86 89 91 92 92
55 56 64 64 69 64 62 59 56 51 48 46 46 56 64 63 60 58 56 53 50 46 45 46 49 53 54 58 58 59 59 59 59 60 61 60 60 64 68 72 75 77 78 79 80 80 82 85 88 91 90 91 91 92
51 54 65 68 69 65 61 59 56 54 50 50 50 47 47 56 66 64 62 61 57 55 51 52 54 56 59 61 62 62 60 58 56 60 64 64 65 70 75 78 78 79 79 79 81 84 87 89 89 90 91 93 94 96
51 51 61 62 68 65 59 56 54 52 52 50 49 49 50 49 48 53 61 61 61 61 61 60 63 65 65 64 65 66 66 67 66 67 71 70 73 77 81 82 82 84 86 87 86 86 87 89 91 93 95 98 101 103
52 56 62 64 69 65 59 57 56 54 52 53 50 47 47 45 46 47 46 48 54 63 70 73 75 73 72 74 74 73 75 75 74 73 73 70 72 77 79 81 82 83 84 86 88 90 92 94 96 99 102 105 108 111
50 55 62 63 66 66 63 63 61 58 55 52 52 51 50 48 45 43 45 51 56 58 61 65 67 69 70 71 71 72 73 71 73 72 73 74 77 79 80 81 83 85 87 89 92 95 98 101 104 106 109 112 115 118
53 54 57 60 64 63 67 65 62 62 58 54 56 56 54 52 52 51 53 55 55 58 61 62 63 65 67 68 71 72 73 72 72 74 76 79 81 82 85 87 89 92 95 98 101 102 106 109 111 113 116 119 121 123
50 52 56 56 60 62 64 65 63 62 61 63 64 63 60 59 59 58 58 60 61 61 62 64 66 68 70 72 73 75 77 78 79 82 85 88 91 93 96 98 100 102 104 106 108 111 115 117 119 121 121 122 123 121
45 45 47 51 56 60 61 59 61 64 66 64 64 66 68 67 66 67 67 68 69 71 72 74 75 76 79 80 81 83 85 87 90 93 95 97 100 102 104 106 110 112 113 115 117 117 119 121 120 119 118 115 115 115
50 50 50 50 51 55 60 62 62 61 62 64 65 69 72 70 71 73 75 75 76 78 79 80 81 84 85 87 89 92 94 97 100 101 103 105 107 110 113 114 114 115 116 117 117 116 114 112 109 108 109 110 110 106
53 54 53 54 54 54 57 59 60 61 62 62 62 64 68 72 73 75 77 78 80 82 84 85 88 90 91 93 95 97 100 102 104 106 107 108 111 113 115 115 114 113 112 112 111 110 111 110 110 110 106 101 100 100
50 51 51 52 54 56 58 61 61 63 66 67 68 67 68 69 73 76 79 82 84 87 89 91 92 95 97 97 100 103 105 107 110 112 113 112 111 110 110 111 112 112 111 110 111 112 109 106 102 101 101 98 95 94
49 51 52 53 53 54 54 54 56 57 59 60 65 69 72 74 77 79 80 84 87 88 89 90 92 94 96 99 101 102 103 102 101 102 106 107 106 107 107 108 109 110 110 107 104 102 101 98 94 92 91 89 85 83
53 54 54 55 57 58 56 58 59 58 59 61 62 64 67 69 70 71 72 73 75 80 85 87 90 92 92 94 95 96 94 93 93 97 101 103 103 102 102 101 101 100 99 95 91 90 89 88 87 86 84 82 79 78
58 58 59 57 58 56 57 59 61 63 63 64 64 66 67 70 72 74 75 74 76 79 82 84 83 83 87 89 90 90 90 90 91 92 93 94 94 93 94 92 90 88 87 85 84 84 84 82 80 78 75 74 74 73
63 63 64 63 63 62 63 63 63 63 64 64 64 66 68 69 70 70 72 75 76 77 79 79 80 83 85 86 86 87 86 87 89 89 89 87 85 84 83 82 81 82 82 82 81 78 77 75 74 72 70 69 67 67
62 63 64 66 66 69 70 70 69 68 67 68 68 70 70 71 71 72 73 78 79 78 79 80 80 80 81 81 81 80 80 81 81 80 80 79 79 78 76 76 77 77 77 74 73 73 72 70 68 67 65 64 64 64
64 65 64 64 63 64 64 67 68 68 67 67 67 70 72 73 72 72 73 76 74 74 75 75 75 76 75 75 75 76 77 77 75 74 73 72 71 71 72 72 71 69 68 69 68 67 66 65 64 64 63 62 62 62
60 61 62 61 62 63 63 65 66 65 66 66 66 69 70 69 67 66 69 70 69 68 68 70 71 72 73 73 72 71 69 68 67 67 67 67 67 67 66 66 65 63 62 62 63 63 63 62 62 62 62 61 61 60
57 57 57 56 58 59 60 60 60 60 60 60 62 64 65 64 64 65 65 66 67 67 67 66 66 66 66 64 63 62 62 63 64 64 63 63 63 62 62 61 61 61 60 59 58 59 60 60 60 59 60 59 57 56
56 56 56 54 55 56 59 58 58 59 60 60 61 62 62 61 61 61 60 60 60 60 60 59 59 59 59 59 60 62 62 61 60 60 59 58 57 57 56 56 56 56 57 57 56 57 57 57 57 57 57 57 57 56
47 48 49 49 49 49 50 53 54 54 54 55 55 55 56 55 55 55 54 54 54 54 55 55 56 57 58 59 58 57 57 57 57 56 55 54 53 53 53 54 54 54 55 55 54 54 55 55 55 55 55 56 56 56
40 41 42 43 44 44 45 46 47 48 48 48 48 49 49 49 49 49 50 50 51 52 52 53 54 54 54 54 54 54 54 53 52 51 51 52 52 52 52 52 53 53 53 53 52 52 52 52 52 52 53 52 51 51
33 34 36 37 37 38 39 40 41 42 43 44 45 45 45 45 45 46 47 47 48 49 49 50 50 50 51 51 50 50 51 51 51 51 51 51 51 51 51 50 49 50 51 51 51 52 51 50 50 49 47 47 47 45
29 30 30 31 32 33 34 35 37 38 39 41 41 41 41 40 41 43 43 44 45 45 45 46 46 46 47 48 49 49 50 50 51 51 51 51 49 49 49 49 48 49 49 47 47 47 47 46 45 45 45 44 42 41
27 28 29 30 31 31 32 33 34 35 36 37 38 37 36 37 38 39 41 41 42 42 43 44 44 45 46 47 47 48 48 48 47 47 47 47 48 48 48 47 46 45 45 45 44 43 44 45 45 44 43 42 42 41
Wind_Direction
151 156 161 162 164 166 168 170 174 178 178 180 182 178 177 178 184 188 188 190 192 196 199 202 204 206 210 211 214 222 228 234 239 241 243 244 246 249 253 257 261 268 270 266 266 270 271 278 288 294 294 294 300 305
153 158 160 165 168 168 169 174 176 177 179 183 183 179 177 185 189 188 193 193 195 200 202 205 208 210 212 217 222 227 234 237 241 246 248 250 249 254 256 259 268 273 275 271 274 278 282 287 290 293 296 299 302 303
159 160 163 166 167 170 173 174 176 177 183 187 181 179 184 189 190 193 194 195 198 201 204 206 210 214 219 225 232 236 241 243 244 247 249 252 253 255 257 261 268 272 272 275 278 285 288 289 291 293 296 298 300 301
161 164 169 169 171 176 176 175 177 181 186 187 180 182 189 191 192 197 199 200 201 204 208 210 213 217 222 228 236 242 245 248 249 250 253 256 257 258 261 264 268 272 273 275 278 283 287 290 291 292 294 298 299 300
164 171 172 174 176 179 179 176 181 185 189 186 181 186 190 192 193 197 204 210 209 211 213 215 218 222 226 230 235 241 246 249 252 255 260 266 269 264 264 269 274 273 274 276 281 284 285 289 292 294 296 296 298 300
172 172 178 179 179 181 182 179 184 187 191 192 185 191 191 193 195 197 202 207 213 218 221 223 225 228 231 236 239 242 245 249 253 258 265 269 270 270 270 275 277 276 279 281 281 284 289 290 292 292 293 294 296 296
181 182 180 181 182 183 185 185 186 186 190 196 192 195 198 199 201 203 206 210 212 215 222 227 232 235 239 242 243 245 248 252 256 260 265 269 272 275 275 275 276 280 282 285 288 289 289 290 290 291 292 293 294 295
187 188 183 181 184 188 189 187 189 189 192 197 204 200 200 204 209 211 212 215 218 219 221 227 233 240 243 246 249 251 254 257 260 264 267 270 274 276 278 278 280 283 284 286 286 287 288 288 288 289 292 293 295 298
192 191 186 184 189 190 193 192 192 193 196 199 204 212 211 208 211 215 218 221 224 226 229 234 238 240 243 246 249 252 254 256 259 264 267 271 274 275 276 277 279 281 282 284 285 285 286 287 289 290 294 296 297 299
200 196 192 189 190 190 193 198 196 198 200 204 206 208 214 222 223 219 220 224 226 229 233 238 242 244 246 248 249 252 256 259 262 267 268 272 274 275 276 277 278 279 281 282 282 284 285 288 291 293 294 297 299 299
196 197 196 195 195 195 196 200 203 208 206 208 212 216 217 220 223 227 228 229 231 233 235 241 246 247 248 251 254 255 258 261 264 266 270 272 274 275 275 276 277 278 279 281 284 286 288 290 293 295 296 297 298 300
192 192 192 195 197 198 200 204 209 212 216 216 215 216 221 225 230 233 234 237 239 240 239 241 243 246 251 255 258 262 265 268 270 270 270 270 271 271 273 275 278 281 284 287 288 290 291 293 294 296 297 298 299 300
194 193 195 198 201 205 204 209 213 216 219 224 228 227 227 230 231 232 235 236 236 239 241 245 249 251 254 257 259 260 261 262 264 266 267 270 272 275 278 280 281 283 284 285 287 289 292 293 294 295 296 296 297 298
200 199 201 204 206 210 212 215 220 222 226 231 233 235 237 238 240 239 239 241 243 243 245 249 252 255 257 259 261 263 265 268 270 273 274 274 275 276 277 278 280 282 283 286 288 289 291 292 294 295 296 297 298 299
201 204 207 209 211 214 217 222 226 229 232 233 234 236 237 240 241 244 246 248 250 252 254 257 259 261 263 266 268 270 271 273 272 272 272 274 276 278 280 282 284 284 286 287 288 290 292 294 294 295 296 296 297 300
215 213 212 212 215 219 220 225 228 230 233 236 239 240 241 243 245 246 247 248 251 253 254 256 258 260 262 264 267 269 270 271 271 272 274 276 279 281 283 284 286 287 287 289 291 292 293 294 294 294 295 297 298 298
221 222 223 222 220 221 223 226 228 231 234 238 240 242 240 240 243 245 248 249 253 256 258 260 262 263 265 267 268 270 271 273 274 276 278 280 281 283 285 286 288 289 289 290 290 291 292 293 295 297 299 299 300 299
224 225 227 229 231 231 230 230 232 234 237 241 245 246 245 245 246 248 250 252 253 256 258 260 262 263 265 267 269 271 272 274 276 277 279 281 283 285 287 287 287 288 288 289 291 292 294 296 297 298 299 298 298 298
228 230 232 233 236 238 236 236 237 241 242 243 243 245 246 247 248 249 251 252 254 256 258 260 264 267 269 270 271 273 274 276 278 280 282 283 284 284 284 285 287 288 290 291 292 294 295 297 298 298 297 295 295 297
234 236 237 239 240 241 244 246 246 245 245 244 243 245 247 249 251 253 255 256 258 261 263 265 266 267 268 270 271 273 274 276 278 280 280 281 281 283 284 286 287 289 290 292 293 294 295 295 294 293 293 295 297 298
237 236 237 239 241 242 244 245 244 246 250 251 251 252 253 252 254 256 257 258 261 263 264 265 266 268 270 272 274 276 276 277 278 278 280 281 283 284 285 286 288 290 291 293 293 293 293 291 292 296 299 300 300 301
242 242 244 245 246 246 247 250 251 249 250 251 253 253 257 259 258 258 257 261 263 264 265 266 268 270 270 272 275 277 279 280 282 282 283 283 284 286 289 291 291 291 292 292 292 291 293 296 298 299 299 300 301 301
247 247 249 251 253 253 255 256 257 256 259 261 261 263 265 266 265 265 269 270 270 271 272 274 275 275 276 277 279 280 282 283 284 284 286 288 289 290 291 291 292 291 291 291 293 297 298 297 298 299 300 301 301 302
248 250 253 255 256 257 259 260 263 263 265 266 268 269 270 269 268 270 271 271 271 273 274 275 277 279 280 280 282 284 285 286 287 288 288 289 289 289 290 289 289 290 293 297 297 297 298 298 299 301 302 303 304 304
247 249 251 252 254 255 256 258 261 262 264 266 268 268 268 268 269 270 271 272 274 276 278 279 280 281 282 283 285 286 287 288 289 289 288 288 288 287 288 290 293 295 295 296 297 297 299 301 301 302 303 303 304 305
248 250 252 255 257 258 259 261 262 264 264 266 267 268 269 271 272 274 275 276 277 278 280 281 281 282 284 285 285 286 288 287 287 286 285 286 288 290 293 294 295 295 295 295 296 298 299 300 301 302 303 304 305 305
258 259 260 262 263 263 264 266 268 269 271 272 272 273 273 274 276 276 277 278 279 280 280 281 282 282 283 285 285 285 284 283 284 286 289 291 293 293 294 295 295 295 297 298 298 299 300 301 303 303 303 303 304 304
258 261 262 264 265 267 268 270 270 271 273 274 274 275 276 276 276 276 277 278 278 279 279 280 281 282 282 281 281 283 285 288 290 291 291 292 293 293 293 295 296 297 298 299 299 300 301 302 302 304 305 306 308 309
258 260 262 264 265 265 264 266 268 269 269 269 270 271 272 273 274 276 277 277 278 278 278 279 279 280 281 283 286 288 289 289 291 292 293 293 294 295 296 297 298 299 299 300 302 302 302 304 305 305 306 308 309 310
255 256 257 258 260 261 262 262 263 265 266 267 268 268 270 271 272 274 274 275 276 277 278 280 282 283 285 286 287 288 290 290 291 292 293 295 296 297 297 298 299 299 300 300 302 302 302 303 303 303 303 304 304 304
259 259 260 261 261 262 265 267 268 269 270 271 271 272 272 273 275 276 277 279 280 280 280 282 283 285 286 287 289 290 292 293 295 295 296 296 297 298 298 298 299 300 301 302 302 302 302 302 302 303 303 303 303 303
258 260 261 263 264 265 266 266 267 268 269 271 273 275 277 279 278 278 279 280 280 282 284 285 285 287 288 289 291 292 294 295 296 297 297 297 299 299 299 300 301 301 301 301 301 302 302 303 304 305 305 306 307 308
263 263 264 265 266 268 269 270 271 272 273 274 276 278 281 281 281 282 282 283 285 285 286 287 288 288 289 290 292 292 292 293 295 296 297 299 300 300 301 302 303 302 302 303 304 304 306 307 308 309 309 310 310 311
Height
10247 10260 10272 10284 10295 10307 10319 10334 10347 10360 10373 10385 10397 10408 10421 10434 10442 10452 10462 10472 10481 10490 10497 10504 10511 10517 10522 10527 10532 10536 10540 10543 10546 10548 10550 10552 10554 10555 10554 10554 10553 10553 10552 10550 10550 10549 10549 10544 10541 10537 10531 10526 10521 10515
10255 10267 10278 10290 10302 10313 10327 10339 10351 10363 10374 10386 10397 10408 10420 10430 10438 10450 10459 10469 10478 10486 10493 10499 10506 10511 10517 10522 10527 10530 10533 10536 10539 10541 10544 10545 10546 10547 10547 10547 10544 10543 10541 10541 10537 10535 10535 10534 10529 10523 10516 10512 10505 10499
10263 10274 10285 10296 10307 10319 10331 10343 10354 10364 10376 10386 10395 10408 10418 10427 10437 10447 10457 10466 10474 10481 10488 10496 10502 10507 10512 10516 10519 10523 10525 10528 10531 10533 10535 10537 10539 10539 10539 10539 10536 10532 10529 10529 10527 10524 10521 10519 10515 10508 10504 10497 10490 10483
10270 10280 10291 10300 10311 10323 10334 10345 10355 10364 10375 10385 10395 10406 10417 10427 10436 10446 10455 10463 10470 10477 10484 10490 10495 10500 10504 10509 10512 10515 10517 10520 10522 10524 10527 10528 10529 10530 10530 10528 10526 10519 10515 10517 10518 10511 10510 10502 10496 10493 10488 10481 10473 10464
10275 10284 10293 10304 10315 10326 10336 10346 10356 10366 10375 10384 10394 10405 10415 10424 10433 10442 10451 10458 10465 10472 10479 10483 10488 10493 10496 10500 10503 10506 10508 10511 10513 10515 10517 10518 10519 10519 10520 10519 10513 10502 10502 10505 10505 10497 10495 10489 10481 10475 10469 10461 10454 10446
10277 10285 10294 10303 10315 10327 10337 10346 10356 10365 10375 10384 10393 10403 10413 10422 10431 10439 10447 10454 10460 10467 10472 10477 10482 10485 10488 10491 10493 10495 10498 10500 10503 10505 10506 10508 10505 10507 10510 10508 10489 10490 10491 10488 10486 10482 10479 10472 10467 10460 10453 10444 10436 10428
10279 10288 10297 10307 10317 10326 10336 10346 10356 10365 10375 10384 10392 10401 10411 10419 10427 10434 10441 10446 10452 10459 10465 10471 10474 10477 10479 10480 10481 10484 10487 10490 10493 10494 10495 10494 10494 10495 10497 10491 10476 10477 10475 10470 10468 10465 10459 10451 10447 10440 10432 10424 10415 10408
10280 10288 10297 10306 10316 10327 10336 10346 10355 10364 10373 10382 10391 10398 10404 10413 10421 10427 10433 10440 10446 10452 10458 10462 10465 10465 10466 10468 10470 10473 10476 10479 10482 10483 10482 10481 10484 10480 10480 10469 10465 10462 10458 10453 10449 10445 10440 10433 10425 10418 10411 10403 10395 10388
10277 10285 10296 10305 10315 10325 10334 10344 10353 10362 10370 10378 10386 10395 10401 10406 10413 10419 10426 10434 10440 10446 10451 10453 10453 10453 10455 10454 10457 10459 10462 10466 10470 10470 10469 10469 10470 10464 10460 10453 10448 10445 10441 10435 10429 10424 10417 10411 10404 10397 10390 10383 10375 10367
10275 10285 10295 10302 10312 10322 10331 10340 10349 10357 10365 10374 10381 10389 10396 10402 10407 10411 10418 10426 10432 10437 10442 10442 10440 10441 10440 10441 10444 10449 10452 10456 10459 10456 10454 10455 10453 10446 10438 10434 10429 10424 10421 10416 10410 10405 10397 10391 10385 10378 10370 10362 10355 10347
10275 10285 10295 10305 10314 10323 10331 10338 10346 10353 10361 10369 10376 10383 10388 10393 10400 10407 10414 10421 10424 10429 10430 10428 10426 10426 10426 10429 10431 10437 10440 10440 10444 10443 10437 10440 10435 10426 10418 10414 10410 10404 10400 10396 10391 10386 10380 10372 10364 10358 10351 10342 10333 10324
10270 10280 10291 10302 10313 10321 10328 10336 10343 10349 10356 10363 10370 10375 10382 10388 10395 10402 10409 10412 10414 10415 10415 10408 10407 10411 10415 10416 10419 10422 10420 10424 10427 10424 10420 10421 10415 10404 10400 10396 10392 10387 10382 10375 10369 10363 10357 10350 10342 10334 10325 10317 10308 10298
10271 10281 10290 10299 10308 10316 10324 10328 10336 10344 10350 10356 10361 10367 10373 10381 10388 10395 10398 10398 10396 10396 10395 10396 10398 10400 10402 10402 10402 10401 10401 10404 10402 10404 10402 10400 10392 10387 10383 10377 10373 10368 10363 10356 10349 10343 10335 10326 10318 10310 10302 10293 10284 10273
10270 10278 10287 10296 10304 10311 10317 10323 10330 10338 10344 10348 10354 10359 10365 10372 10376 10380 10381 10381 10383 10384 10384 10385 10386 10386 10385 10385 10383 10383 10383 10385 10386 10383 10379 10373 10371 10368 10362 10357 10354 10349 10343 10336 10328 10320 10314 10306 10297 10289 10280 10271 10258 10245
10265 10274 10282 10290 10297 10304 10309 10316 10322 10327 10331 10337 10341 10349 10356 10358 10362 10366 10368 10368 10369 10370 10371 10371 10370 10370 10368 10367 10366 10365 10363 10364 10364 10359 10355 10351 10348 10345 10339 10335 10331 10325 10319 10312 10304 10296 10288 10279 10271 10261 10251 10241 10231 10219
10260 10268 10275 10283 10289 10295 10301 10307 10311 10315 10319 10325 10331 10337 10342 10344 10348 10351 10352 10353 10354 10354 10354 10353 10352 10353 10351 10350 10350 10346 10343 10342 10339 10335 10332 10330 10325 10320 10315 10309 10303 10297 10290 10284 10278 10270 10260 10251 10241 10232 10222 10214 10205 10194
10253 10259 10266 10272 10278 10285 10290 10295 10299 10303 10308 10312 10315 10318 10324 10327 10329 10332 10334 10335 10336 10336 10336 10336 10335 10332 10333 10331 10328 10324 10322 10318 10315 10312 10308 10304 10299 10294 10288 10281 10273 10266 10260 10253 10246 10238 10229 10221 10214 10205 10194 10184 10173 10160
10242 10249 10255 10261 10267 10272 10277 10282 10287 10290 10294 10297 10299 10303 10307 10309 10312 10314 10316 10317 10318 10318 10317 10316 10314 10312 10310 10307 10304 10303 10299 10295 10291 10286 10282 10279 10272 10266 10260 10252 10244 10236 10228 10222 10213 10205 10197 10190 10181 10172 10165 10154 10143 10130
10233 10239 10245 10250 10255 10260 10265 10269 10274 10276 10279 10282 10285 10287 10289 10290 10291 10293 10294 10296 10297 10297 10295 10293 10293 10291 10288 10285 10282 10279 10275 10271 10267 10264 10258 10252 10246 10238 10229 10221 10214 10207 10200 10192 10183 10176 10167 10159 10152 10144 10134 10124 10115 10106
10221 10227 10232 10236 10241 10245 10249 10252 10257 10258 10261 10264 10266 10268 10270 10270 10272 10273 10273 10274 10274 10274 10273 10271 10270 10268 10265 10261 10257 10254 10250 10247 10243 10239 10233 10226 10217 10209 10201 10195 10187 10179 10172 10165 10157 10150 10142 10133 10123 10114 10105 10100 10094 10085
10208 10213 10219 10223 10228 10232 10234 10237 10239 10242 10244 10246 10247 10250 10251 10251 10252 10254 10254 10254 10254 10252 10249 10248 10246 10243 10241 10238 10234 10231 10226 10221 10216 10211 10204 10197 10190 10182 10174 10166 10160 10153 10146 10138 10130 10123 10115 10105 10097 10091 10083 10073 10065 10056
10196 10200 10204 10207 10211 10215 10218 10219 10222 10223 10226 10227 10229 10230 10232 10233 10233 10234 10234 10235 10232 10229 10227 10225 10223 10220 10217 10213 10208 10204 10199 10195 10188 10182 10176 10169 10163 10156 10149 10142 10135 10128 10121 10113 10105 10097 10089 10082 10076 10068 10061 10053 10044 10035
10182 10185 10189 10191 10195 10197 10200 10201 10202 10204 10207 10208 10210 10211 10212 10212 10212 10212 10213 10210 10206 10204 10202 10200 10198 10195 10191 10187 10183 10177 10172 10167 10161 10155 10148 10143 10137 10131 10125 10118 10110 10102 10095 10088 10081 10076 10069 10061 10054 10047 10040 10033 10026 10017
10167 10170 10173 10176 10177 10180 10181 10182 10183 10185 10187 10188 10189 10190 10191 10191 10190 10190 10190 10186 10181 10180 10179 10175 10173 10170 10166 10162 10157 10154 10148 10142 10136 10131 10125 10119 10113 10107 10101 10094 10086 10080 10074 10068 10060 10053 10047 10040 10034 10026 10020 10013 10006 9999
10152 10155 10158 10160 10162 10163 10164 10165 10165 10167 10168 10169 10170 10170 10170 10168 10168 10168 10167 10162 10160 10159 10156 10152 10150 10146 10141 10137 10134 10129 10123 10118 10113 10107 10102 10096 10090 10084 10079 10073 10068 10063 10057 10049 10041 10034 10028 10022 10015 10008 10002 9996 9990 9982
10136 10139 10140 10143 10143 10145 10145 10145 10146 10147 10148 10149 10151 10150 10147 10146 10146 10147 10145 10141 10139 10136 10133 10130 10126 10123 10118 10114 10110 10106 10102 10097 10092 10085 10080 10075 10070 10066 10061 10055 10049 10045 10040 10033 10026 10018 10011 10004 9998 9991 9984 9979 9973 9967
10120 10123 10123 10127 10127 10128 10128 10128 10128 10129 10130 10131 10131 10129 10127 10127 10126 10124 10122 10120 10118 10115 10112 10109 10105 10101 10098 10095 10090 10086 10081 10075 10070 10066 10062 10058 10053 10047 10042 10037 10030 10024 10019 10013 10009 10002 9994 9987 9981 9976 9969 9963 9958 9951
10107 10106 10108 10110 10112 10112 10109 10110 10110 10110 10110 10109 10109 10107 10106 10106 10106 10104 10103 10101 10099 10096 10093 10090 10087 10083 10078 10074 10069 10065 10061 10058 10054 10050 10045 10041 10036 10031 10026 10020 10015 10008 10002 9997 9991 9986 9980 9973 9966 9960 9954 9947 9940 9933
10093 10094 10094 10094 10095 10096 10096 10095 10094 10095 10095 10095 10094 10092 10091 10090 10089 10088 10086 10083 10081 10078 10075 10071 10068 10064 10059 10055 10052 10049 10045 10041 10036 10032 10028 10024 10019 10015 10009 10003 9998 9992 9986 9981 9977 9971 9964 9958 9952 9946 9940 9933 9927 9920
10082 10083 10083 10083 10083 10084 10084 10084 10083 10082 10081 10080 10079 10078 10077 10075 10073 10071 10068 10066 10063 10061 10057 10054 10051 10047 10044 10040 10037 10033 10029 10025 10022 10018 10013 10008 10003 9998 9993 9989 9983 9977 9972 9967 9962 9957 9952 9947 9941 9935 9929 9923 9917 9910
10072 10072 10072 10073 10073 10073 10072 10071 10070 10069 10068 10066 10065 10063 10062 10060 10058 10055 10053 10050 10048 10045 10042 10039 10036 10032 10029 10025 10021 10017 10013 10009 10006 10001 9997 9993 9988 9984 9979 9975 9970 9964 9959 9954 9948 9942 9937 9932 9927 9922 9917 9911 9905 9899
10062 10062 10062 10061 10061 10060 10059 10058 10057 10055 10054 10052 10051 10049 10048 10047 10044 10041 10040 10036 10033 10031 10028 10025 10021 10018 10014 10010 10007 10003 9999 9995 9990 9986 9982 9977 9973 9969 9964 9960 9955 9950 9945 9940 9935 9929 9924 9918 9914 9909 9903 9897 9892 9886
10052 10051 10051 10050 10050 10049 10048 10047 10045 10043 10041 10039 10037 10038 10037 10035 10031 10029 10026 10023 10020 10017 10014 10011 10008 10005 10001 9997 9994 9990 9986 9982 9978 9973 9969 9964 9960 9955 9950 9946 9941 9936 9931 9926 9922 9916 9911 9905 9900 9895 9890 9885 9880 9875